Regional Weather Roundup
Issued by NWS

Home | Current Version | Previous Version | Text Only | Print | Product List | Glossary On
Versions: 1 2 3 4 5 6 7 8 9 10 11 12 13 14 15 16 17 18 19 20 21 22 23 24 25 26 27 28 29 30 31 32 33 34 35 36 37 38 39 40 41 42 43 44 45 46 47 48 49 50
000
ASUS46 KLOX 231712
RWRCA

SOUTHERN CALIFORNIA WEATHER ROUNDUP
NATIONAL WEATHER SERVICE OXNARD CALIFORNIA
1000 AM PDT TUE SEP 23 2014

NOTE: "FAIR" INDICATES FEW OR NO CLOUDS BELOW 12,000 FEET WITH NO
SIGNIFICANT WEATHER AND/OR OBSTRUCTIONS TO VISIBILITY.

  -  STATIONS PRECEEDED BY AN ASTERISK (*) ARE NOT NWS OR FAA
     STATIONS AND ARE NOT SUBJECT TO NWS AND FAA QUALITY CONTROL.

CAZ041-042-087-231800-
LA AND ORANGE COUNTY COASTAL AREAS


CITY           SKY/WX    TMP DP  RH WIND       PRES   REMARKS
L.A. DOWNTOWN  SUNNY     74  63  68 CALM      29.98S
L.A. AIRPORT   MOSUNNY   68  63  83 W3        29.99S
LONG BEACH     SUNNY     74  64  71 N5        29.99R HAZE

CITY           SKY/WX    TMP DP  RH WIND       PRES   REMARKS
AVALON           N/A     70 N/A N/A MISG        N/A
FULLERTON      SUNNY     76  62  62 CALM      29.98S
*GETTY CENTER    N/A    N/A N/A N/A S3          N/A
HAWTHORNE      MOSUNNY   73  64  73 W3        29.99S
*LOS ALAMITOS  SUNNY     74  64  72 NW5       29.99S HAZE
*REDONDO BEACH   N/A     71  66  83 W2        29.98S
SANTA ANA      MOSUNNY   74  63  68 CALM      29.99S HAZE
STA MONICA APT SUNNY     71  62  73 VRB3      29.99S
TORRANCE       SUNNY     75  64  69 NW6       30.00R
*UCLA            N/A    N/A N/A N/A S5        29.97R

$$

CAZ547-548-048-231800-
LA COUNTY VALLEYS AND INLAND EMPIRE


CITY           SKY/WX    TMP DP  RH WIND       PRES   REMARKS
BURBANK        SUNNY     75  53  46 CALM      29.99S
VAN NUYS       SUNNY     77  56  48 CALM      29.99S

CITY           SKY/WX    TMP DP  RH WIND       PRES   REMARKS
CORONA AIRPORT SUNNY     75  59  57 CALM      30.00S
*CHATSWORTH      N/A     79  57  46 SW1       29.95S
CHINO          SUNNY     75  60  59 CALM      30.01R
*CLAREMONT       N/A     85  55  35 CALM        N/A
MARCH AFB      SUNNY     78  51  38 CALM      30.02R
*NORTHRIDGE      N/A     77  52  41 S1          N/A
ONTARIO        SUNNY     77  59  53 SW3       30.00R
*PASADENA        N/A     81  59  47 E7          N/A
RIVERSIDE      SUNNY     76  58  53 SW3       30.00R
SAN BERNARDINO SUNNY     75  50  41 CALM      30.01R
*SAN GABRIEL     N/A     77  57  48 CALM      29.95S
*WHITEMAN AP   SUNNY     75  52  43 CALM      30.03R
*WOODLAND HILL   N/A     81  54  39 NE1         N/A

$$

CAZ054-055-231800-
LA AND SAN BERNARDINO COUNTY MOUNTAINS


CITY           SKY/WX    TMP DP  RH WIND       PRES   REMARKS
*ACTON           N/A     72  38  29 N6          N/A
*BIG BEAR AIRP SUNNY     66  28  24 W10       30.33R
*BIG PINES       N/A     69   2   7 SW2         N/A
*CHILAO          N/A     74   3   6 SE16        N/A
MT WILSON NWS    N/A     75  21  13 MISG        N/A
SANDBERG       SUNNY     78  32  18 S12       30.18R
*WARM SPRINGS    N/A     80  39  22 CALM        N/A

$$

CAZ028-029-059-060-099-231800-
ANTELOPE VALLEY AND SURROUNDING AREAS


CITY           SKY/WX    TMP DP  RH WIND       PRES   REMARKS
LANCASTER      SUNNY     75  31  19 CALM      30.07S
PALMDALE       SUNNY     77  38  24 N3        30.07S

CITY           SKY/WX    TMP DP  RH WIND       PRES   REMARKS
29 PALMS       SUNNY     81  41  24 NW3       30.10S
BARSTOW/DAGGET SUNNY     83  39  21 NW6       30.04S
BISHOP         SUNNY     76  36  23 CALM      30.14S
CHINA LAKE     SUNNY     80  39  23 VRB3      30.05S
EDWARDS AFB    SUNNY     72  38  28 VRB1      30.06R
MOJAVE         FAIR      77  41  27 E3        30.09R
NEEDLES        SUNNY     87  39  18 CALM      29.98R
VICTORVILLE    SUNNY     79  34  19 W5        30.09S

$$

CAZ039-040-231800-
VENTURA AND SANTA BARBARA COUNTY COAST


CITY           SKY/WX    TMP DP  RH WIND       PRES   REMARKS
CAMARILLO      SUNNY     72  62  71 SW6       29.99S
NWS OXNARD       N/A     70  62  75 W3        29.99S
OXNARD AIRPORT MOSUNNY   68  62  81 VRB5      29.99S
*POINT MUGU    MOSUNNY   73  63  70 SW5       30.00R HAZE
SBA APT/GOLETA MOSUNNY   67  62  84 VRB5      29.99R
*SANTA BARBARA   N/A     70  62  75 W3        30.07R
*VENTURA         N/A     69  62  78 E3        30.05S

$$

CAZ044-045-231800-
VENTURA COUNTY VALLEYS


CITY           SKY/WX    TMP DP  RH WIND       PRES   REMARKS
*SIMI VALLEY     N/A     77  55  47 CALM      29.94F
*OJAI            N/A     80  51  35 NW3       29.93S
*FILLMORE        N/A     77  52  42 CALM      29.89S

$$

CAZ053-231800-
VENTURA COUNTY MOUNTAINS


CITY           SKY/WX    TMP DP  RH WIND       PRES   REMARKS
*LOCKWOOD VLY    N/A     72  25  17 MISG        N/A

$$

CAZ034-035-036-231800-
CENTRAL COAST AND SANTA YNEZ VALLEY


CITY           SKY/WX    TMP DP  RH WIND       PRES   REMARKS
SAN LUIS OBISP CLOUDY    61  58  90 SW3       30.01S
SANTA MARIA    CLOUDY    65  58  78 W5        30.02R

CITY           SKY/WX    TMP DP  RH WIND       PRES   REMARKS
*CAL POLY SLO    N/A     59  59 100 SE3         N/A
*LOMPOC        CLOUDY    63  55  77 W3        30.02R
*PISMO BEACH     N/A     61  59  94 SW3       30.02S
*SANTA YNEZ    FAIR      61  59  94 CALM      30.00F

$$

CAZ037-038-051-231800-
SAN LUIS OBISPO COUNTY INTERIOR AND CUYAMA VALLEY


CITY           SKY/WX    TMP DP  RH WIND       PRES   REMARKS
*CUYAMA          N/A     74  52  47 E2        29.94F
PASO ROBLES    SUNNY     68  54  60 VRB3      30.01S

$$

CAZ032-033-061-231800-
SOUTHERN DESERTS


CITY           SKY/WX    TMP DP  RH WIND       PRES   REMARKS
BLYTHE         SUNNY     89  56  32 E3        29.93S
IMPERIAL       SUNNY     89  61  38 CALM      29.90R
PALM SPRINGS   SUNNY     91  40  16 MISG      29.94R
THERMAL        SUNNY     92  43  18 N6        29.88S

$$

ELSEWHERE ACROSS THE WESTERN UNITED STATES AND MEXICO


CITY           SKY/WX    TMP DP  RH WIND       PRES   REMARKS
DENVER, CO     MOSUNNY   75  44  33 N7        30.15R
GRAND CANYON,  SUNNY     71  36  27 VRB5      30.35R
HONOLULU, HI   PTCLDY    81  70  69 NE5       30.01S
KAHULUI, MAUI  PTCLDY    77  66  69 NE12      30.02S
LAKE TAHOE, CA SUNNY     69  30  23 S8        30.22S
LAS VEGAS, NV  SUNNY     84  41  21 S3        30.02S
MAMMOTH LAKES, FAIR      64  36  34 CALM      30.32S
MEXICO CITY, M PTSUNNY   68  50  52 NW3       30.35S
PHOENIX, AZ    MOSUNNY   89  54  30 NE5       29.97R
PORTLAND, OR   CLOUDY    64  59  83 E5        29.86F
RENO, NV       PTSUNNY   68  44  42 CALM      30.12F
SALT LAKE CITY MOSUNNY   73  54  51 SE6       30.16S
SAN DIEGO, CA  MOSUNNY   71  63  75 NW7       29.99R
SAN FRANCISCO, PTSUNNY   69  60  73 VRB5      30.02R
SAN JOSE, CA   CLOUDY    65  57  75 CALM      30.02R
SEATTLE, WA    CLOUDY    62  57  83 S6        29.86R
TIJUANA, MEX   SUNNY     75  59  57 NW6       30.00R

$$

STATION/POSITION TIME  TEMP    WIND        PRES    VSBY  WAVE
                       AIR SEA DIR/SP/G                  HT/PER
                 (UTC) (F)     (DEG/KT/KT) (MB)    (MI)  (FT/S)
POINT ARGUELLO B NOT AVBL
WEST SANTA BARBA 1700   62 64  320/ 14/ 16 1015.0R         4/10
POINT CONCEPTION NOT AVBL
EAST SANTA BARBA 1700   64 66  240/  4/  6 1015.8R
SANTA MONICA BAY 1700   66 67  250/  2/  2 1015.3R         2/12


USA.gov is the U.S. government's official web portal to all federal, state and local government web resources and services.